When you browse on this site, cookies collect data to enhance your experience and personalize the content and advertising you see.
Visit our Privacy Policy to learn more. By continuing to use the site, you agree to this use of cookies and data.

Meteo pe oră la Maturín

Astăzi, 7 August, Vineri

Timp Temperatura Precipitaţii Vânt Presiune Umiditate
00:00 +25°C° 0 mm 1 m/s 757 mmHg 94%
01:00 +25°C° 0 mm 1 m/s 756 mmHg 94%
02:00 +25°C° 0 mm 1 m/s 756 mmHg 96%
03:00 +25°C° 0 mm 1 m/s 756 mmHg 96%
04:00 +25°C° 0 mm 1 m/s 756 mmHg 96%
05:00 +23°C° 0 mm 0 m/s 756 mmHg 96%
06:00 +24°C° 0 mm 0 m/s 756 mmHg 93%
07:00 +25°C° 0 mm 0 m/s 756 mmHg 90%
08:00 +28°C° 0 mm 1 m/s 757 mmHg 86%
09:00 +30°C° 0 mm 1 m/s 757 mmHg 79%
10:00 +31°C° 0 mm 1 m/s 757 mmHg 71%
11:00 +34°C° 0 mm 2 m/s 757 mmHg 64%
12:00 +32°C° 0.9 mm 2 m/s 756 mmHg 69%
13:00 +32°C° 0.9 mm 2 m/s 756 mmHg 73%
14:00 +31°C° 0.9 mm 3 m/s 755 mmHg 78%
15:00 +31°C° 1.5 mm 3 m/s 755 mmHg 81%
16:00 +30°C° 1.5 mm 3 m/s 755 mmHg 84%
17:00 +30°C° 1.5 mm 3 m/s 755 mmHg 87%
18:00 +29°C° 0.7 mm 2 m/s 755 mmHg 89%
19:00 +28°C° 0.7 mm 2 m/s 756 mmHg 91%
20:00 +27°C° 0.7 mm 2 m/s 756 mmHg 93%
21:00 +26°C° 0.2 mm 2 m/s 757 mmHg 94%
22:00 +26°C° 0.2 mm 2 m/s 757 mmHg 94%
23:00 +26°C° 0.2 mm 2 m/s 758 mmHg 95%

Mâine, 8 August, Sâmbătă

Timp Temperatura Precipitaţii Vânt Presiune Umiditate
00:00 +26°C° 0.4 mm 2 m/s 757 mmHg 96%
01:00 +26°C° 0.4 mm 1 m/s 757 mmHg 96%
02:00 +25°C° 0.4 mm 1 m/s 756 mmHg 97%
03:00 +25°C° 0.9 mm 1 m/s 756 mmHg 97%
04:00 +25°C° 0.9 mm 1 m/s 756 mmHg 97%
05:00 +25°C° 0.9 mm 1 m/s 756 mmHg 97%
06:00 +26°C° 0.6 mm 1 m/s 757 mmHg 96%
07:00 +27°C° 0.6 mm 1 m/s 757 mmHg 94%
08:00 +28°C° 0.6 mm 2 m/s 757 mmHg 92%
09:00 +29°C° 1.2 mm 2 m/s 757 mmHg 89%
10:00 +29°C° 1.2 mm 2 m/s 758 mmHg 86%
11:00 +30°C° 1.2 mm 3 m/s 758 mmHg 84%
12:00 +30°C° 1.1 mm 3 m/s 757 mmHg 82%
13:00 +31°C° 1.1 mm 3 m/s 756 mmHg 81%
14:00 +31°C° 1.1 mm 3 m/s 756 mmHg 79%
15:00 +30°C° 0.7 mm 2 m/s 755 mmHg 83%
16:00 +29°C° 0.7 mm 2 m/s 755 mmHg 87%
17:00 +29°C° 0.7 mm 2 m/s 755 mmHg 90%
18:00 +28°C° 0.1 mm 2 m/s 755 mmHg 92%
19:00 +27°C° 0.1 mm 2 m/s 756 mmHg 94%
20:00 +26°C° 0.1 mm 1 m/s 756 mmHg 96%
21:00 +26°C° 0.2 mm 1 m/s 756 mmHg 96%
22:00 +26°C° 0.2 mm 1 m/s 757 mmHg 97%
23:00 +26°C° 0.2 mm 1 m/s 757 mmHg 97%

Poimâine, 9 August, Duminică

Timp Temperatura Precipitaţii Vânt Presiune Umiditate
00:00 +26°C° 0.9 mm 1 m/s 757 mmHg 97%
01:00 +25°C° 0.9 mm 1 m/s 756 mmHg 97%
02:00 +23°C° 0.9 mm 0 m/s 756 mmHg 97%
03:00 +23°C° 0.9 mm 0 m/s 756 mmHg 97%
04:00 +23°C° 0.9 mm 0 m/s 756 mmHg 97%
05:00 +23°C° 0.9 mm 0 m/s 756 mmHg 97%
06:00 +24°C° 0.8 mm 0 m/s 756 mmHg 95%
07:00 +25°C° 0.8 mm 0 m/s 757 mmHg 94%
08:00 +26°C° 0.8 mm 0 m/s 757 mmHg 92%
09:00 +27°C° 1.5 mm 0 m/s 757 mmHg 88%
10:00 +28°C° 1.5 mm 0 m/s 757 mmHg 84%
11:00 +31°C° 1.5 mm 1 m/s 757 mmHg 81%
12:00 +31°C° 1.8 mm 1 m/s 757 mmHg 79%
13:00 +29°C° 1.8 mm 0 m/s 756 mmHg 77%
14:00 +30°C° 1.8 mm 0 m/s 756 mmHg 74%
15:00 +29°C° 0.8 mm 0 m/s 755 mmHg 78%
16:00 +31°C° 0.8 mm 1 m/s 755 mmHg 81%
17:00 +30°C° 0.8 mm 1 m/s 754 mmHg 84%
18:00 +29°C° 0.5 mm 1 m/s 755 mmHg 87%
19:00 +28°C° 0.5 mm 1 m/s 755 mmHg 90%
20:00 +27°C° 0.5 mm 1 m/s 756 mmHg 93%
21:00 +26°C° 0.1 mm 1 m/s 756 mmHg 94%
22:00 +26°C° 0.1 mm 1 m/s 757 mmHg 94%
23:00 +26°C° 0.1 mm 1 m/s 757 mmHg 95%

10 August, Luni

Timp Temperatura Precipitaţii Vânt Presiune Umiditate
00:00 +26°C° 0.6 mm 1 m/s 756 mmHg 96%
01:00 +25°C° 0.6 mm 1 m/s 756 mmHg 96%
02:00 +23°C° 0.6 mm 0 m/s 755 mmHg 97%
03:00 +23°C° 0.4 mm 0 m/s 755 mmHg 97%
04:00 +23°C° 0.4 mm 0 m/s 755 mmHg 97%
05:00 +23°C° 0.4 mm 0 m/s 755 mmHg 97%
06:00 +26°C° 0.1 mm 1 m/s 755 mmHg 96%
07:00 +26°C° 0.1 mm 1 m/s 756 mmHg 94%
08:00 +27°C° 0.1 mm 1 m/s 756 mmHg 93%
09:00 +28°C° 0.4 mm 1 m/s 756 mmHg 87%
10:00 +30°C° 0.4 mm 1 m/s 756 mmHg 82%
11:00 +31°C° 0.4 mm 2 m/s 756 mmHg 76%
12:00 +31°C° 0.6 mm 2 m/s 755 mmHg 75%
13:00 +31°C° 0.6 mm 2 m/s 755 mmHg 74%
14:00 +32°C° 0.6 mm 2 m/s 754 mmHg 72%
15:00 +31°C° 0.3 mm 2 m/s 753 mmHg 75%
16:00 +31°C° 0.3 mm 2 m/s 753 mmHg 77%
17:00 +30°C° 0.3 mm 2 m/s 753 mmHg 80%
18:00 +29°C° 0.1 mm 2 m/s 753 mmHg 84%
19:00 +28°C° 0.1 mm 2 m/s 754 mmHg 88%
20:00 +27°C° 0.1 mm 2 m/s 754 mmHg 93%
21:00 +26°C° 0.6 mm 2 m/s 754 mmHg 94%
22:00 +26°C° 0.6 mm 1 m/s 755 mmHg 95%
23:00 +26°C° 0.6 mm 1 m/s 755 mmHg 96%

11 August, Marţi

Timp Temperatura Precipitaţii Vânt Presiune Umiditate
00:00 +25°C° 0.2 mm 1 m/s 755 mmHg 96%
01:00 +25°C° 0.2 mm 1 m/s 754 mmHg 96%
02:00 +25°C° 0.2 mm 1 m/s 754 mmHg 96%
03:00 +25°C° 0 mm 1 m/s 754 mmHg 96%
04:00 +25°C° 0 mm 1 m/s 754 mmHg 96%
05:00 +25°C° 0 mm 1 m/s 753 mmHg 96%
06:00 +26°C° 0 mm 1 m/s 754 mmHg 93%
07:00 +27°C° 0 mm 1 m/s 754 mmHg 91%
08:00 +28°C° 0 mm 1 m/s 755 mmHg 89%
09:00 +29°C° 0.8 mm 2 m/s 755 mmHg 84%
10:00 +30°C° 0.8 mm 2 m/s 755 mmHg 79%
11:00 +31°C° 0.8 mm 3 m/s 755 mmHg 75%
12:00 +31°C° 0.7 mm 3 m/s 754 mmHg 76%
13:00 +31°C° 0.7 mm 3 m/s 753 mmHg 78%
14:00 +31°C° 0.7 mm 3 m/s 752 mmHg 79%
15:00 +30°C° 0.9 mm 3 m/s 752 mmHg 82%
16:00 +30°C° 0.9 mm 3 m/s 752 mmHg 84%
17:00 +29°C° 0.9 mm 3 m/s 751 mmHg 87%
18:00 +28°C° 0.1 mm 2 m/s 752 mmHg 89%
19:00 +27°C° 0.1 mm 2 m/s 753 mmHg 91%
20:00 +26°C° 0.1 mm 2 m/s 753 mmHg 94%
21:00 +26°C° 0 mm 2 m/s 754 mmHg 94%
22:00 +26°C° 0 mm 2 m/s 754 mmHg 95%
23:00 +26°C° 0 mm 2 m/s 755 mmHg 96%

12 August, Miercuri

Timp Temperatura Precipitaţii Vânt Presiune Umiditate
00:00 +26°C° 0.1 mm 1 m/s 754 mmHg 96%
01:00 +25°C° 0.1 mm 1 m/s 754 mmHg 97%
02:00 +25°C° 0.1 mm 1 m/s 753 mmHg 97%
03:00 +25°C° 0.2 mm 1 m/s 753 mmHg 97%
04:00 +25°C° 0.2 mm 1 m/s 753 mmHg 97%
05:00 +25°C° 0.2 mm 1 m/s 753 mmHg 96%
06:00 +26°C° 0 mm 1 m/s 754 mmHg 94%
07:00 +27°C° 0 mm 1 m/s 754 mmHg 92%
08:00 +28°C° 0 mm 2 m/s 755 mmHg 90%
09:00 +29°C° 0.7 mm 2 m/s 755 mmHg 85%
10:00 +30°C° 0.7 mm 2 m/s 755 mmHg 81%
11:00 +31°C° 0.7 mm 3 m/s 755 mmHg 76%
12:00 +31°C° 1.9 mm 3 m/s 754 mmHg 78%
13:00 +31°C° 1.9 mm 3 m/s 753 mmHg 80%
14:00 +31°C° 1.9 mm 3 m/s 752 mmHg 83%
15:00 +30°C° 1 mm 2 m/s 752 mmHg 85%
16:00 +30°C° 1 mm 2 m/s 752 mmHg 87%
17:00 +29°C° 1 mm 2 m/s 751 mmHg 90%
18:00 +28°C° 0.6 mm 2 m/s 752 mmHg 91%
19:00 +27°C° 0.6 mm 2 m/s 752 mmHg 93%
20:00 +27°C° 0.6 mm 2 m/s 753 mmHg 94%
21:00 +26°C° 0.5 mm 1 m/s 753 mmHg 95%
22:00 +26°C° 0.5 mm 1 m/s 754 mmHg 96%
23:00 +26°C° 0.5 mm 1 m/s 754 mmHg 97%
Arată mai mult